�������l�o���
Date,Time,MP-1(��Sv/h),MP-2(��Sv/h),MP-3(��Sv/h),MP-4(��Sv/h),MP-5(��Sv/h),MP-6(��Sv/h),MP-7(��Sv/h),MP-8(��Sv/h),����,����(m/s),���J
2022/03/20,00:00,0.562,0.825,0.533,1.016,0.709,0.341,0.592,0.562,��쓌,4.6,��
2022/03/20,00:10,0.563,0.824,0.536,1.017,0.707,0.343,0.593,0.563,��쓌,4.9,��
2022/03/20,00:20,0.563,0.826,0.534,1.019,0.707,0.341,0.591,0.561,��쓌,4.2,��
2022/03/20,00:30,0.562,0.824,0.534,1.019,0.707,0.341,0.592,0.561,��,5.0,��
2022/03/20,00:40,0.563,0.828,0.534,1.016,0.707,0.342,0.593,0.562,��,5.1,��
2022/03/20,00:50,0.562,0.824,0.536,1.017,0.708,0.341,0.593,0.562,��,6.8,��
2022/03/20,01:00,0.564,0.826,0.534,1.017,0.706,0.342,0.593,0.562,��,6.8,��
2022/03/20,01:10,0.561,0.826,0.534,1.017,0.707,0.342,0.592,0.564,��,5.9,��
2022/03/20,01:20,0.563,0.828,0.535,1.017,0.708,0.342,0.593,0.561,��,5.3,��
2022/03/20,01:30,0.563,0.827,0.535,1.020,0.708,0.342,0.591,0.564,��쐼,5.5,��
2022/03/20,01:40,0.563,0.828,0.534,1.019,0.708,0.341,0.595,0.562,�쐼,5.0,��
2022/03/20,01:50,0.564,0.828,0.535,1.019,0.708,0.343,0.593,0.563,�쐼,5.0,��
2022/03/20,02:00,0.563,0.828,0.534,1.018,0.709,0.342,0.594,0.563,�쐼,4.4,��
2022/03/20,02:10,0.563,0.829,0.535,1.018,0.708,0.342,0.593,0.561,���쐼,5.0,��
2022/03/20,02:20,0.564,0.828,0.534,1.019,0.708,0.342,0.593,0.562,��,5.4,��
2022/03/20,02:30,0.563,0.828,0.533,1.017,0.708,0.341,0.594,0.562,��,5.2,��
2022/03/20,02:40,0.562,0.828,0.536,1.018,0.711,0.342,0.595,0.563,���k��,4.6,��
2022/03/20,02:50,0.564,0.828,0.535,1.018,0.707,0.342,0.593,0.562,���k��,4.9,��
2022/03/20,03:00,0.564,0.827,0.535,1.018,0.708,0.342,0.593,0.562,���k��,5.1,��
2022/03/20,03:10,0.563,0.829,0.534,1.017,0.709,0.341,0.594,0.563,���k��,5.7,��
2022/03/20,03:20,0.563,0.828,0.535,1.020,0.709,0.341,0.594,0.564,���k��,5.5,��
2022/03/20,03:30,0.564,0.829,0.534,1.018,0.709,0.342,0.592,0.563,���k��,5.6,��
2022/03/20,03:40,0.562,0.828,0.535,1.019,0.710,0.341,0.593,0.565,���k��,5.7,��
2022/03/20,03:50,0.564,0.828,0.535,1.018,0.709,0.342,0.592,0.562,���k��,5.3,��
2022/03/20,04:00,0.564,0.828,0.536,1.020,0.709,0.342,0.593,0.564,��,5.1,��
2022/03/20,04:10,0.563,0.827,0.536,1.018,0.710,0.343,0.591,0.563,��,5.7,��
2022/03/20,04:20,0.565,0.828,0.535,1.020,0.711,0.342,0.594,0.562,���k��,6.6,��
2022/03/20,04:30,0.565,0.828,0.535,1.021,0.711,0.340,0.593,0.562,���k��,4.4,��
2022/03/20,04:40,0.563,0.828,0.536,1.018,0.710,0.341,0.593,0.562,��,5.4,��
2022/03/20,04:50,0.562,0.828,0.535,1.021,0.709,0.342,0.592,0.562,��,5.2,��
2022/03/20,05:00,0.563,0.829,0.536,1.020,0.710,0.342,0.592,0.564,��,4.1,��
2022/03/20,05:10,0.563,0.829,0.534,1.019,0.709,0.342,0.595,0.563,��,3.8,��
2022/03/20,05:20,0.563,0.827,0.536,1.022,0.711,0.341,0.592,0.562,���k��,6.4,��
2022/03/20,05:30,0.564,0.828,0.535,1.017,0.709,0.342,0.593,0.562,���k��,5.7,��
2022/03/20,05:40,0.562,0.826,0.534,1.019,0.711,0.342,0.594,0.563,���k��,5.2,�L
2022/03/20,05:50,0.564,0.828,0.534,1.022,0.709,0.343,0.593,0.564,��,5.1,��
2022/03/20,06:00,0.561,0.828,0.535,1.019,0.711,0.341,0.594,0.563,��,5.5,��
2022/03/20,06:10,0.564,0.830,0.535,1.018,0.712,0.341,0.592,0.564,���k��,5.3,��
2022/03/20,06:20,0.564,0.830,0.537,1.020,0.710,0.341,0.592,0.562,�k��,5.4,��
2022/03/20,06:30,0.563,0.828,0.536,1.022,0.711,0.342,0.594,0.564,�k��,3.6,��
2022/03/20,06:40,0.562,0.831,0.537,1.020,0.709,0.342,0.595,0.563,���k��,1.7,��
2022/03/20,06:50,0.565,0.830,0.536,1.021,0.712,0.342,0.593,0.564,�k�k��,1.7,��
2022/03/20,07:00,0.564,0.831,0.537,1.019,0.712,0.342,0.595,0.564,�k�k��,2.2,��
2022/03/20,07:10,0.563,0.830,0.537,1.021,0.712,0.341,0.595,0.564,-,CALM,��
2022/03/20,07:20,0.566,0.829,0.537,1.019,0.710,0.342,0.595,0.562,�k,1.7,��
2022/03/20,07:30,0.565,0.831,0.536,1.021,0.712,0.343,0.594,0.563,�k�k��,2.3,��
2022/03/20,07:40,0.565,0.832,0.536,1.021,0.711,0.343,0.595,0.565,�k�k��,3.2,��
2022/03/20,07:50,0.566,0.833,0.536,1.023,0.712,0.341,0.595,0.564,�k,3.0,��
2022/03/20,08:00,0.564,0.831,0.535,1.022,0.713,0.341,0.597,0.564,-,CALM,��
2022/03/20,08:10,0.566,0.829,0.535,1.022,0.713,0.342,0.596,0.563,���쓌,1.5,��
2022/03/20,08:20,0.567,0.833,0.537,1.022,0.713,0.342,0.594,0.564,�k��,1.1,��
2022/03/20,08:30,0.568,0.831,0.536,1.021,0.712,0.343,0.593,0.564,���쐼,1.5,��
2022/03/20,08:40,0.566,0.831,0.537,1.022,0.714,0.341,0.595,0.564,���쐼,2.0,��
2022/03/20,08:50,0.567,0.833,0.537,1.020,0.716,0.342,0.594,0.565,��쓌,2.5,��
2022/03/20,09:00,0.568,0.834,0.538,1.023,0.715,0.342,0.594,0.565,���쓌,2.6,��
2022/03/20,09:10,0.568,0.834,0.537,1.024,0.716,0.342,0.594,0.565,��쓌,1.9,��
2022/03/20,09:20,0.569,0.834,0.538,1.024,0.715,0.343,0.594,0.565,���쓌,1.7,��
2022/03/20,09:30,0.569,0.830,0.538,1.022,0.716,0.342,0.593,0.564,��쓌,2.0,��
2022/03/20,09:40,0.569,0.833,0.539,1.023,0.717,0.342,0.592,0.565,��,2.3,��
2022/03/20,09:50,0.570,0.832,0.537,1.024,0.716,0.343,0.592,0.563,�쓌,3.2,��
2022/03/20,10:00,0.570,0.832,0.538,1.023,0.719,0.342,0.593,0.564,�쓌,3.6,��
2022/03/20,10:10,0.568,0.832,0.540,1.023,0.718,0.343,0.594,0.564,��쓌,3.2,��
2022/03/20,10:20,0.569,0.831,0.539,1.024,0.718,0.341,0.594,0.563,�쓌,2.9,��
2022/03/20,10:30,0.569,0.834,0.539,1.022,0.718,0.344,0.595,0.562,���쓌,2.2,��
2022/03/20,10:40,0.569,0.835,0.541,1.025,0.718,0.343,0.595,0.564,-,CALM,��
2022/03/20,10:50,0.569,0.836,0.540,1.026,0.720,0.344,0.596,0.564,�k��,0.6,��
2022/03/20,11:00,0.569,0.839,0.540,1.024,0.718,0.343,0.593,0.566,�k�k��,2.2,�L
2022/03/20,11:10,0.569,0.837,0.540,1.026,0.719,0.344,0.595,0.564,�k,3.4,�L
2022/03/20,11:20,0.572,0.838,0.540,1.023,0.719,0.343,0.595,0.565,�k�k��,3.2,�L
2022/03/20,11:30,0.573,0.838,0.539,1.026,0.721,0.343,0.596,0.564,�k��,3.1,��
2022/03/20,11:40,0.569,0.839,0.542,1.026,0.721,0.343,0.594,0.564,���k��,4.9,��
2022/03/20,11:50,0.572,0.838,0.541,1.027,0.720,0.343,0.594,0.564,��,8.3,�L
2022/03/20,12:00,0.572,0.841,0.541,1.026,0.720,0.344,0.595,0.565,��,7.1,��
2022/03/20,12:10,0.570,0.837,0.541,1.025,0.722,0.343,0.594,0.565,���k��,6.6,��
2022/03/20,12:20,0.570,0.838,0.541,1.026,0.720,0.344,0.596,0.565,��,7.0,��
2022/03/20,12:30,0.569,0.839,0.540,1.026,0.719,0.344,0.594,0.564,��,8.2,��
2022/03/20,12:40,0.571,0.836,0.543,1.027,0.722,0.343,0.595,0.565,��,8.7,��
2022/03/20,12:50,0.570,0.837,0.542,1.027,0.720,0.345,0.594,0.565,��,9.2,��
2022/03/20,13:00,0.571,0.837,0.543,1.027,0.722,0.345,0.595,0.565,��,8.5,��
2022/03/20,13:10,0.573,0.837,0.542,1.028,0.721,0.344,0.596,0.566,��,6.6,��
2022/03/20,13:20,0.572,0.838,0.543,1.028,0.721,0.345,0.595,0.566,���k��,6.1,��
2022/03/20,13:30,0.572,0.840,0.543,1.029,0.720,0.345,0.596,0.563,���k��,6.6,��
2022/03/20,13:40,0.568,0.838,0.543,1.029,0.719,0.342,0.596,0.565,��,5.7,��
2022/03/20,13:50,0.573,0.836,0.544,1.029,0.720,0.345,0.596,0.564,���k��,5.9,��
2022/03/20,14:00,0.569,0.836,0.543,1.031,0.718,0.345,0.597,0.566,�k��,6.5,��
2022/03/20,14:10,0.571,0.837,0.542,1.029,0.721,0.345,0.597,0.565,�k�k��,4.5,��
2022/03/20,14:20,0.571,0.837,0.543,1.031,0.723,0.343,0.596,0.566,�k�k��,7.0,��
2022/03/20,14:30,0.572,0.840,0.542,1.030,0.723,0.344,0.596,0.567,�k�k��,6.6,��
2022/03/20,14:40,0.573,0.839,0.543,1.031,0.724,0.343,0.597,0.565,�k��,5.0,��
2022/03/20,14:50,0.571,0.838,0.542,1.031,0.723,0.344,0.597,0.568,�k��,3.4,��
2022/03/20,15:00,0.572,0.841,0.544,1.030,0.723,0.345,0.597,0.568,�k��,6.1,��
2022/03/20,15:10,0.573,0.841,0.544,1.029,0.723,0.344,0.598,0.567,��,4.4,��
2022/03/20,15:20,0.571,0.842,0.544,1.032,0.723,0.345,0.596,0.566,���k��,5.4,��
2022/03/20,15:30,0.572,0.842,0.545,1.033,0.721,0.346,0.596,0.566,�k��,5.4,��
2022/03/20,15:40,0.572,0.844,0.546,1.031,0.722,0.344,0.597,0.566,���k��,7.1,��
2022/03/20,15:50,0.571,0.842,0.544,1.033,0.722,0.344,0.597,0.565,���k��,6.3,��
2022/03/20,16:00,0.570,0.841,0.543,1.033,0.721,0.345,0.598,0.566,�k��,4.8,��
2022/03/20,16:10,0.571,0.842,0.542,1.030,0.721,0.344,0.598,0.567,���k��,5.3,��
2022/03/20,16:20,0.570,0.841,0.544,1.032,0.721,0.346,0.597,0.567,���k��,4.0,��
2022/03/20,16:30,0.572,0.841,0.543,1.032,0.720,0.346,0.597,0.569,�k��,4.4,��
2022/03/20,16:40,0.571,0.841,0.543,1.031,0.723,0.344,0.597,0.568,�k��,6.3,��
2022/03/20,16:50,0.570,0.841,0.545,1.033,0.721,0.345,0.598,0.568,�k��,6.1,��
2022/03/20,17:00,0.572,0.841,0.545,1.033,0.721,0.345,0.596,0.566,�k��,5.3,��
2022/03/20,17:10,0.571,0.844,0.544,1.033,0.721,0.345,0.597,0.567,�k��,4.5,��
2022/03/20,17:20,0.572,0.843,0.543,1.034,0.721,0.345,0.599,0.567,���k��,5.3,��
2022/03/20,17:30,0.572,0.842,0.543,1.032,0.723,0.345,0.598,0.568,���k��,4.1,��
2022/03/20,17:40,0.571,0.844,0.544,1.031,0.722,0.344,0.598,0.568,��,1.7,��
2022/03/20,17:50,0.571,0.842,0.543,1.033,0.723,0.345,0.597,0.568,��,3.3,��
2022/03/20,18:00,0.571,0.843,0.542,1.034,0.724,0.344,0.599,0.568,���k��,3.5,��
2022/03/20,18:10,0.573,0.843,0.542,1.032,0.723,0.343,0.600,0.569,���k��,2.6,��
2022/03/20,18:20,0.572,0.842,0.543,1.031,0.723,0.344,0.598,0.566,���k��,2.3,��
2022/03/20,18:30,0.571,0.842,0.543,1.033,0.723,0.345,0.597,0.568,�k�k��,2.6,��
2022/03/20,18:40,0.570,0.844,0.542,1.032,0.723,0.343,0.599,0.568,�k��,3.0,��
2022/03/20,18:50,0.571,0.843,0.542,1.034,0.723,0.345,0.598,0.567,�k��,2.8,��
2022/03/20,19:00,0.570,0.842,0.543,1.034,0.723,0.343,0.598,0.568,�k��,3.4,��
2022/03/20,19:10,0.571,0.843,0.541,1.032,0.725,0.344,0.597,0.566,�k��,3.9,��
2022/03/20,19:20,0.569,0.841,0.543,1.034,0.724,0.343,0.597,0.569,�k�k��,4.1,��
2022/03/20,19:30,0.570,0.841,0.544,1.033,0.722,0.343,0.598,0.568,�k�k��,4.7,��
2022/03/20,19:40,0.569,0.842,0.543,1.033,0.723,0.343,0.600,0.567,�k�k��,5.1,��
2022/03/20,19:50,0.570,0.841,0.543,1.034,0.724,0.343,0.598,0.566,�k�k��,4.8,��
2022/03/20,20:00,0.569,0.842,0.542,1.032,0.724,0.343,0.599,0.567,�k�k��,4.4,��
2022/03/20,20:10,0.570,0.841,0.543,1.033,0.722,0.342,0.598,0.567,�k,4.1,��
2022/03/20,20:20,0.571,0.840,0.542,1.034,0.724,0.343,0.597,0.566,�k�k��,4.5,��
2022/03/20,20:30,0.569,0.841,0.543,1.031,0.725,0.343,0.597,0.567,�k,4.6,��
2022/03/20,20:40,0.570,0.842,0.544,1.032,0.724,0.342,0.598,0.567,�k,6.2,��
2022/03/20,20:50,0.569,0.841,0.541,1.033,0.724,0.342,0.596,0.568,�k�k��,6.0,��
2022/03/20,21:00,0.568,0.842,0.542,1.032,0.723,0.344,0.599,0.567,�k�k��,6.3,��
2022/03/20,21:10,0.572,0.842,0.541,1.034,0.724,0.342,0.597,0.567,�k,5.4,��
2022/03/20,21:20,0.570,0.842,0.542,1.033,0.724,0.342,0.597,0.567,�k,6.5,��
2022/03/20,21:30,0.569,0.842,0.542,1.033,0.724,0.343,0.597,0.566,�k,5.1,��
2022/03/20,21:40,0.570,0.843,0.543,1.034,0.724,0.344,0.598,0.566,�k,5.0,��
2022/03/20,21:50,0.568,0.842,0.542,1.035,0.725,0.342,0.598,0.567,�k,4.7,��
2022/03/20,22:00,0.571,0.843,0.542,1.033,0.726,0.343,0.597,0.567,�k,2.6,��
2022/03/20,22:10,0.570,0.842,0.541,1.030,0.725,0.343,0.598,0.567,�k,3.3,��
2022/03/20,22:20,0.571,0.842,0.541,1.034,0.723,0.343,0.597,0.567,�k,4.9,��
2022/03/20,22:30,0.570,0.843,0.543,1.033,0.724,0.343,0.598,0.567,�k�k��,2.0,��
2022/03/20,22:40,0.569,0.842,0.542,1.033,0.725,0.343,0.598,0.568,�k��,2.3,��
2022/03/20,22:50,0.571,0.845,0.543,1.035,0.726,0.342,0.596,0.567,�k��,2.8,��
2022/03/20,23:00,0.570,0.844,0.543,1.035,0.725,0.344,0.599,0.568,�k��,2.6,��
2022/03/20,23:10,0.570,0.843,0.542,1.033,0.724,0.343,0.598,0.569,�k�k��,2.3,��
2022/03/20,23:20,0.569,0.840,0.541,1.031,0.725,0.343,0.598,0.567,�k,2.3,��
2022/03/20,23:30,0.571,0.843,0.543,1.032,0.723,0.344,0.597,0.567,�k��,0.9,��
2022/03/20,23:40,0.572,0.842,0.542,1.036,0.726,0.343,0.597,0.567,���k��,1.2,��
2022/03/20,23:50,0.570,0.841,0.543,1.034,0.723,0.343,0.597,0.567,��,0.6,��
